Location: ?ejeti?ky
(50.4060°N, 14.9016°E)
Time: 01:58:51
(UTC+00:00)

N. Korean satellite - Pass Details

Date: 08 December 2021
Orbit: 446 x 492 km, 97.3° (Epoch: 16 January)

Event Time Altitude Azimuth Distance (km) Brightness Sun altitude
Rises 16:34:57 0° 215° (SW) 2,513 11.1 -14.7°
Reaches altitude 10° 16:38:11 10° 248° (WSW) 1,630 10.6 -15.2°
Maximum altitude 16:39:33 12° 271° (W) 1,516 10.2 -15.4°
Drops below altitude 10° 16:40:54 10° 294° (WNW) 1,625 9.9 -15.6°
Sets 16:44:12 0° 328° (NNW) 2,525 10.4 -16.1°
